Temperature
5 5 4 4 4 3 3 2 1 1 2 3 3 3 2 2 2 2 2 2 2 2 2 3 3 2 2 2 2 2 2 2 2 2 3 3 3 3
5 4 4 4 3 3 2 2 1 1 0 2 2 2 2 2 2 2 2 2 2 2 2 2 2 2 2 2 2 2 2 2 2 2 2 2 2 2
4 4 4 3 3 3 2 2 1 0 0 1 1 1 1 1 2 1 1 1 1 1 1 1 1 1 2 2 2 2 2 2 2 2 2 2 2 2
4 3 3 3 2 2 2 1 1 0 -0 0 1 1 1 1 1 1 1 1 1 1 1 1 1 1 1 1 1 1 1 2 2 2 2 2 2 2
3 3 2 2 2 2 1 1 0 0 -0 -0 -0 0 0 0 0 0 0 0 0 0 0 0 0 0 1 1 1 1 1 2 2 2 2 2 2 2
2 2 2 2 1 1 0 0 -0 -0 -0 -1 -0 -0 -0 -0 -1 -0 -0 -0 -0 0 0 -0 -0 0 0 0 1 1 1 1 1 1 2 2 2 2
2 2 1 1 1 0 0 -0 -0 -1 -1 -1 -1 -1 -1 -1 -1 -2 -2 -1 -1 -1 -0 -0 -0 0 0 0 0 0 1 1 1 1 1 1 2 2
2 1 1 1 0 0 -0 -0 -1 -1 -1 -2 -2 -2 -2 -2 -2 -2 -2 -2 -2 -1 -2 -1 -1 -1 -1 -0 -0 -0 0 0 1 1 1 1 1 2
1 1 0 0 0 0 -0 -0 -1 -1 -2 -2 -2 -2 -2 -2 -2 -2 -2 -3 -3 -2 -2 -2 -1 -1 -1 -1 -0 -0 -0 0 0 1 1 1 1 1
0 0 0 0 -0 -0 -1 -1 -1 -1 -2 -2 -2 -2 -2 -2 -2 -3 -3 -2 -2 -2 -2 -2 -1 -1 -1 -1 -1 -1 -1 -0 -0 0 1 1 1 1
0 -0 -0 -0 -1 -1 -1 -1 -1 -2 -2 -2 -2 -2 -2 -2 -2 -2 -2 -2 -3 -2 -2 -3 -2 -2 -1 -1 -1 -1 -1 -1 -0 -0 -0 0 0 1
-0 -0 -1 -1 -1 -2 -2 -2 -2 -2 -2 -2 -2 -2 -2 -2 -2 -2 -3 -3 -3 -3 -2 -3 -3 -3 -2 -1 -1 -1 -1 -1 -1 -1 -1 -0 -0 -0
-1 -1 -1 -1 -2 -2 -2 -2 -3 -3 -2 -2 -2 -2 -2 -2 -2 -2 -2 -3 -3 -3 -3 -3 -3 -3 -3 -3 -2 -1 -2 -1 -1 -1 -1 -1 -1 -0
-1 -1 -2 -2 -2 -2 -2 -2 -3 -3 -3 -3 -2 -3 -3 -2 -2 -2 -2 -3 -3 -3 -3 -3 -3 -3 -3 -3 -3 -2 -2 -2 -2 -1 -1 -1 -1 -1
-2 -2 -2 -2 -2 -2 -2 -3 -3 -3 -3 -3 -3 -3 -3 -3 -3 -3 -3 -3 -2 -3 -3 -3 -3 -3 -3 -3 -3 -3 -2 -2 -2 -2 -1 -1 -1 -1
-2 -2 -2 -2 -3 -3 -3 -3 -3 -3 -3 -3 -3 -3 -3 -3 -3 -3 -3 -3 -3 -3 -3 -3 -3 -3 -3 -3 -3 -3 -3 -3 -2 -2 -2 -2 -2 -1
-3 -2 -2 -2 -3 -3 -3 -3 -3 -3 -3 -3 -4 -4 -4 -3 -3 -3 -3 -3 -4 -4 -3 -3 -3 -3 -3 -3 -3 -3 -3 -3 -2 -2 -2 -2 -2 -1
-3 -3 -3 -3 -4 -4 -3 -3 -3 -4 -4 -4 -4 -4 -4 -4 -4 -4 -4 -4 -4 -4 -4 -3 -3 -3 -3 -3 -3 -3 -3 -3 -3 -2 -2 -2 -2 -1
-4 -4 -4 -4 -4 -4 -4 -4 -4 -4 -4 -4 -4 -4 -4 -4 -4 -4 -4 -4 -4 -4 -4 -4 -4 -4 -4 -4 -3 -3 -3 -3 -2 -2 -2 -2 -2 -2
-4 -4 -4 -4 -4 -5 -5 -4 -4 -4 -4 -4 -5 -4 -4 -4 -4 -4 -4 -5 -5 -4 -4 -4 -4 -4 -4 -4 -4 -3 -3 -3 -2 -2 -2 -2 -2 -2
-4 -5 -5 -5 -5 -5 -5 -5 -5 -5 -5 -5 -5 -5 -5 -5 -5 -5 -5 -5 -5 -4 -4 -4 -4 -4 -4 -4 -4 -3 -3 -3 -2 -2 -2 -2 -2 -2
-5 -5 -5 -5 -5 -5 -5 -5 -5 -5 -5 -5 -5 -5 -5 -5 -5 -5 -5 -5 -5 -5 -4 -4 -4 -4 -3 -3 -3 -3 -3 -2 -2 -2 -2 -2 -2 -2
-5 -5 -5 -5 -5 -5 -5 -5 -5 -5 -5 -5 -5 -5 -5 -5 -5 -5 -5 -5 -5 -5 -4 -4 -4 -4 -3 -3 -3 -3 -3 -2 -2 -2 -2 -2 -2 -2
Wind_Speed
3 3 3 3 3 3 4 4 4 9 11 8 5 6 9 12 16 15 15 20 23 24 25 25 24 24 25 24 24 24 24 24 25 26 26 26 26 26
2 3 3 3 4 3 4 4 4 6 9 8 8 9 11 13 17 16 15 21 22 23 24 24 24 24 24 24 24 24 24 25 25 25 25 25 25 24
3 3 4 5 4 4 4 4 5 5 9 11 9 9 10 11 13 13 14 14 15 22 23 24 23 23 23 23 24 24 24 24 24 24 24 23 22 21
4 4 5 4 5 5 4 5 5 5 7 13 12 10 10 10 11 11 12 13 13 19 22 23 23 23 23 23 23 23 23 24 23 23 22 21 20 20
4 4 5 5 5 5 6 6 6 6 6 9 11 10 9 9 10 11 11 10 12 16 19 20 21 22 23 23 23 23 23 23 21 20 20 19 19 18
4 4 4 5 6 6 6 6 6 7 7 8 10 10 9 8 8 10 12 9 10 12 14 16 19 21 21 22 22 22 22 21 19 19 17 15 15 16
4 4 5 7 9 7 7 7 6 7 7 8 9 10 10 10 10 9 12 12 10 7 9 10 11 10 13 17 19 20 20 19 17 16 14 13 12 13
4 5 6 6 9 11 12 11 10 8 8 8 8 10 12 11 10 10 11 11 9 6 8 11 9 9 10 11 17 20 20 18 16 14 13 12 11 11
4 5 5 6 9 7 9 11 10 12 11 9 9 10 11 11 11 11 11 11 11 9 9 10 8 9 10 13 19 19 18 18 16 14 12 11 10 10
3 4 5 6 7 8 7 8 7 7 9 8 7 9 10 10 9 10 11 11 10 7 6 7 8 8 10 11 16 18 19 17 15 14 13 11 11 10
4 4 5 5 10 11 8 8 9 8 10 12 13 13 15 15 13 8 8 8 9 7 4 4 6 8 8 7 10 16 17 16 15 14 13 12 11 10
4 4 7 8 10 11 7 6 8 9 9 10 10 12 10 11 13 8 7 7 7 6 4 5 5 6 5 5 6 9 10 13 15 14 13 12 11 7
4 4 5 10 11 11 9 5 8 9 7 7 7 8 7 7 7 7 7 6 6 6 6 5 5 5 4 6 6 6 6 7 8 9 11 12 12 9
4 4 5 10 11 11 9 10 12 10 6 6 7 7 7 7 7 8 8 7 6 7 8 7 5 6 6 7 6 6 6 7 6 7 7 10 10 10
3 7 9 10 10 8 10 11 9 6 5 6 7 7 7 7 7 7 8 8 7 7 7 6 5 5 5 5 5 5 5 5 6 6 7 7 6 6
4 6 9 9 7 8 8 7 5 5 5 5 6 6 6 6 6 6 6 7 6 6 7 8 7 6 4 5 5 5 5 4 6 6 6 6 6 5
5 4 4 5 5 5 5 5 5 5 6 5 6 6 6 6 6 6 5 5 5 6 8 7 7 5 4 4 4 5 5 5 5 6 5 6 6 6
5 3 4 5 5 6 6 6 6 6 6 6 6 6 6 7 7 6 5 5 6 6 7 7 7 6 4 4 5 4 5 5 5 6 4 4 5 6
4 3 4 4 5 5 5 5 6 6 6 6 6 6 6 6 6 6 6 6 6 6 6 6 6 5 6 6 6 7 5 5 5 5 5 4 4 5
3 3 4 4 4 5 5 5 6 6 6 6 6 6 6 6 6 6 6 6 6 6 6 6 6 5 4 4 4 5 8 5 4 5 4 3 3 4
4 4 4 4 4 5 5 5 5 5 6 5 5 6 5 5 5 6 5 7 6 5 6 6 7 9 5 3 3 4 6 8 7 4 4 4 4 5
4 4 4 5 5 5 5 5 5 5 6 5 5 5 5 5 5 6 5 5 5 5 5 6 7 6 4 4 4 5 6 7 9 11 9 5 2 3
4 4 5 5 5 4 4 5 5 5 5 5 5 5 5 4 5 4 5 4 4 5 5 6 5 5 4 4 4 4 6 7 6 7 8 12 12 11
Wind_Direction
270 273 282 283 281 279 275 275 287 306 307 302 308 308 318 316 313 316 314 314 318 317 316 316 314 312 310 309 306 303 299 294 290 289 284 281 278 274
280 286 293 292 289 284 278 275 267 276 291 297 301 307 313 313 314 316 313 315 316 316 316 316 315 314 312 310 308 305 302 298 293 289 286 282 278 274
298 295 294 295 296 295 287 282 279 277 287 298 299 305 307 311 316 316 314 314 313 315 316 316 316 316 314 313 310 308 306 302 297 292 288 285 280 275
295 297 298 303 302 301 297 293 288 282 285 297 304 309 308 310 311 314 317 316 314 314 317 317 317 317 316 316 313 311 309 307 301 296 289 285 280 276
284 288 293 299 299 301 298 296 294 296 290 295 303 306 306 313 316 315 312 311 315 317 318 318 319 319 319 319 317 314 312 308 303 300 293 285 280 275
291 288 287 285 288 295 297 296 300 304 303 302 304 308 309 313 315 319 320 320 318 318 317 318 318 320 322 322 321 319 317 313 308 306 302 291 283 277
304 299 296 300 303 306 306 307 309 309 310 310 309 312 315 322 321 317 316 318 313 309 318 318 318 320 324 324 325 326 325 322 318 315 312 307 297 288
312 311 306 303 312 317 315 318 317 314 312 309 307 309 310 312 313 314 315 318 318 319 321 316 319 321 322 322 326 330 331 331 326 322 320 315 309 302
307 313 320 320 324 314 317 325 321 319 316 307 302 304 306 309 311 311 311 309 302 307 312 307 316 319 320 325 331 335 338 341 343 341 336 333 326 322
301 301 308 312 315 325 327 326 321 318 316 314 302 302 304 305 300 299 300 300 294 296 303 302 314 316 320 321 333 341 345 348 351 353 353 353 350 351
313 311 314 307 317 332 333 326 325 325 327 326 322 320 321 322 322 317 315 315 312 312 319 309 309 314 315 320 333 345 349 355 356 357 0 4 5 3
324 322 324 328 328 335 335 327 325 326 329 330 331 331 327 328 334 328 316 312 311 312 325 327 314 324 321 319 335 342 347 353 358 0 4 10 11 9
327 328 327 334 338 340 341 330 324 329 330 328 327 327 329 332 332 327 320 311 307 300 309 322 314 319 310 310 323 338 348 349 349 354 2 10 14 17
322 321 325 335 338 341 341 337 337 339 337 332 332 333 334 334 329 323 320 314 303 294 300 305 305 315 320 317 320 329 341 350 356 359 2 6 13 16
326 331 334 338 341 342 341 342 345 343 336 335 332 329 328 324 323 325 327 325 327 323 318 315 317 317 320 319 319 324 329 342 356 4 6 6 3 3
338 337 343 349 349 343 343 346 345 337 335 328 323 324 327 331 336 337 337 339 345 346 344 343 339 336 338 331 328 334 341 341 348 356 360 2 4 8
345 346 351 350 351 349 346 344 342 342 341 336 333 334 336 340 340 342 342 345 352 345 342 343 341 337 336 337 341 347 349 351 346 349 358 6 6 8
360 353 346 345 342 339 339 340 341 340 338 336 336 337 338 340 341 344 347 353 350 345 342 339 342 345 349 8 11 350 357 354 349 351 356 11 12 8
3 346 339 336 332 330 330 332 333 332 333 335 335 336 338 339 340 343 348 351 347 343 341 344 350 355 4 360 354 4 359 349 352 3 7 15 12 2
351 334 328 325 324 324 324 326 326 329 333 335 336 337 338 337 339 343 347 346 342 341 345 350 354 352 349 337 331 343 352 350 355 7 8 10 9 356
331 323 320 319 320 318 317 318 320 323 327 331 335 336 336 336 336 339 342 343 345 345 347 343 330 329 320 330 354 358 0 3 5 356 350 4 12 21
320 317 318 316 316 313 314 315 319 322 325 329 330 330 333 334 332 336 341 343 345 343 338 335 337 348 3 16 14 2 0 2 13 20 24 25 23 24
315 314 313 313 312 310 310 312 315 317 319 322 326 329 332 334 334 337 340 341 341 344 347 348 352 1 2 1 9 11 10 9 14 27 33 35 47 54
Height
1488 1486 1484 1482 1480 1478 1476 1473 1470 1461 1454 1451 1450 1448 1445 1441 1437 1433 1428 1424 1420 1415 1411 1406 1401 1396 1391 1388 1384 1381 1378 1376 1373 1371 1370 1369 1368 1367
1484 1482 1480 1478 1476 1474 1472 1469 1466 1462 1454 1447 1446 1443 1440 1436 1432 1428 1423 1419 1414 1409 1404 1399 1394 1389 1385 1381 1377 1374 1370 1367 1364 1362 1360 1359 1358 1358
1480 1478 1476 1474 1472 1470 1467 1465 1462 1459 1452 1444 1442 1438 1435 1430 1426 1422 1417 1412 1407 1403 1398 1393 1388 1383 1379 1374 1370 1366 1362 1358 1355 1352 1351 1350 1349 1349
1476 1474 1472 1470 1468 1466 1463 1460 1457 1454 1450 1442 1436 1433 1429 1425 1421 1416 1412 1407 1402 1397 1392 1388 1383 1378 1373 1368 1363 1359 1354 1350 1346 1344 1342 1341 1341 1341
1472 1470 1468 1466 1464 1461 1458 1456 1453 1449 1446 1440 1433 1430 1425 1421 1416 1411 1407 1402 1397 1392 1387 1382 1377 1372 1367 1362 1357 1352 1347 1342 1338 1336 1334 1333 1333 1334
1469 1467 1465 1463 1460 1457 1454 1451 1448 1445 1441 1437 1431 1426 1421 1417 1412 1406 1400 1396 1391 1387 1382 1378 1373 1367 1363 1357 1352 1346 1341 1335 1332 1330 1328 1327 1327 1328
1465 1463 1461 1459 1457 1454 1451 1448 1444 1441 1437 1433 1428 1422 1417 1413 1408 1403 1398 1392 1387 1383 1377 1373 1368 1363 1358 1353 1348 1342 1336 1331 1328 1326 1324 1323 1323 1323
1461 1459 1457 1455 1453 1450 1448 1445 1442 1438 1434 1430 1425 1420 1415 1411 1406 1401 1396 1389 1382 1380 1375 1369 1365 1360 1355 1350 1345 1340 1334 1329 1326 1323 1322 1320 1320 1320
1458 1456 1453 1451 1449 1446 1443 1441 1438 1435 1432 1428 1422 1418 1413 1408 1404 1398 1393 1389 1383 1378 1373 1366 1363 1358 1353 1348 1344 1338 1333 1328 1324 1322 1320 1319 1318 1317
1455 1453 1450 1448 1445 1443 1440 1437 1434 1431 1428 1424 1420 1415 1411 1406 1402 1397 1392 1386 1381 1377 1373 1366 1360 1356 1351 1346 1342 1337 1332 1327 1324 1321 1319 1318 1317 1316
1452 1450 1448 1445 1443 1440 1437 1433 1430 1427 1424 1420 1417 1413 1408 1404 1400 1395 1389 1384 1378 1373 1371 1366 1359 1354 1349 1345 1341 1337 1332 1328 1325 1323 1321 1319 1317 1316
1449 1447 1445 1443 1440 1437 1434 1431 1427 1423 1419 1416 1412 1409 1405 1401 1397 1393 1388 1383 1377 1372 1369 1365 1360 1355 1349 1344 1341 1337 1333 1330 1327 1325 1322 1320 1319 1317
1446 1444 1442 1440 1437 1434 1432 1429 1425 1421 1417 1413 1409 1405 1402 1398 1394 1390 1386 1382 1378 1373 1370 1366 1361 1357 1353 1346 1341 1339 1335 1332 1329 1326 1324 1322 1321 1319
1444 1442 1439 1437 1435 1432 1429 1426 1423 1419 1415 1411 1407 1403 1399 1395 1391 1388 1385 1381 1377 1373 1370 1366 1362 1358 1353 1348 1343 1340 1337 1334 1331 1328 1326 1324 1323 1322
1442 1440 1437 1435 1432 1429 1427 1424 1421 1417 1413 1410 1406 1402 1398 1394 1390 1387 1383 1380 1376 1373 1369 1366 1362 1358 1355 1350 1346 1342 1338 1336 1334 1331 1328 1326 1325 1323
1439 1437 1435 1433 1430 1428 1425 1422 1419 1416 1413 1409 1405 1401 1398 1394 1390 1386 1382 1379 1375 1371 1369 1366 1362 1359 1355 1351 1348 1344 1342 1339 1336 1334 1331 1329 1327 1325
1437 1435 1432 1430 1427 1425 1423 1420 1417 1414 1411 1408 1404 1400 1397 1393 1390 1386 1383 1379 1375 1371 1368 1366 1363 1360 1356 1353 1349 1347 1344 1342 1339 1337 1334 1331 1330 1328
1435 1433 1430 1428 1426 1423 1421 1418 1416 1413 1410 1407 1404 1400 1397 1393 1390 1387 1384 1380 1377 1373 1370 1367 1364 1360 1357 1355 1353 1350 1347 1344 1342 1340 1337 1334 1332 1331
1433 1431 1429 1427 1425 1423 1420 1418 1415 1413 1410 1407 1404 1400 1397 1394 1391 1388 1385 1381 1378 1375 1372 1369 1366 1362 1359 1356 1355 1354 1350 1347 1345 1342 1340 1338 1335 1334
1432 1430 1428 1426 1424 1421 1419 1417 1414 1412 1409 1406 1404 1401 1398 1395 1392 1389 1386 1383 1380 1377 1374 1371 1368 1366 1363 1360 1357 1355 1354 1351 1348 1345 1343 1341 1339 1338
1430 1428 1426 1424 1422 1420 1418 1416 1413 1411 1409 1406 1403 1401 1398 1395 1392 1389 1387 1384 1381 1378 1375 1373 1371 1369 1366 1363 1360 1358 1356 1354 1352 1349 1347 1344 1342 1341
1428 1426 1425 1423 1421 1419 1417 1415 1412 1410 1408 1405 1403 1401 1398 1396 1393 1390 1388 1385 1382 1380 1377 1375 1372 1370 1368 1365 1363 1361 1359 1357 1355 1353 1351 1349 1347 1344
1426 1425 1423 1421 1419 1417 1415 1413 1411 1409 1407 1405 1403 1400 1398 1396 1394 1391 1389 1386 1384 1382 1379 1377 1375 1372 1370 1368 1366 1364 1362 1360 1358 1356 1354 1353 1351 1350